Weather History for Wichita, KS

Change the Weather History Date:

Saturday, September 21, 2013

  Actual Average Record
Temperature  
Mean Temperature 66 °F 68 °F  
Max Temperature 81 °F 80 °F 99 °F (1956)
Min Temperature 51 °F 57 °F 37 °F (1983)
Degree Days  
Heating Degree Days 0 2  
Month to date heating degree days 0 14  
Since 1 July heating degree days 1 15  
Cooling Degree Days 1 5  
Month to date cooling degree days 273 182  
Year to date cooling degree days 1686 1609  
Growing Degree Days 16 (Base 50)    
Moisture  
Dew Point 53 °F    
Average Humidity 66    
Maximum Humidity 96    
Minimum Humidity 36    
Precipitation  
Precipitation 0.00 in 0.10 in 3.83 in (1931)
Month to date precipitation 1.58 2.23  
Year to date precipitation 35.75 26.32  
Snow  
Snow 0.00 in 0.00 in 0.00 in (2007)
Month to date snowfall 0.0 0.0  
Since 1 July snowfall 0.0 0.0  
Since 1 September snowfall 0.0 0.0  
Snow Depth 0.00 in    
Sea Level Pressure  
Sea Level Pressure 29.97 in    
Wind  
Wind Speed 4 mph (South)    
Max Wind Speed 12 mph    
Max Gust Speed 15 mph    
Visibility 10 miles    
Events      
T = Trace of Precipitation, MM = Missing Value Source: NWS Daily Summary

Daily Weather History Graph

Daily Weather History Graph

Search for Another Location

Airport:

Trip Planner

Search our weather history database for the weather conditions in past years. The results will help you decide how hot, cold, wet, or windy it might be!

Date:

Astronomy

Sep. 21, 2013 Rise Set
Actual Time 7:16 AM CDT 7:27 PM CDT
Civil Twilight 6:50 AM CDT 7:53 PM CDT
Nautical Twilight 6:20 AM CDT 8:24 PM CDT
Astronomical Twilight 5:49 AM CDT 8:55 PM CDT
Moon 8:43 PM CDT (9/21) 9:33 AM CDT (9/21)
Length of Visible Light 13h 03m
Length of Day
12h 10m
Waning Gibbous, 94% of the Moon is Illuminated
Sep 21
Waning Gibbous
Sep 26
Last Quarter
Oct 4
New
Oct 11
First Quarter
Oct 18
Full

Hourly Weather History & Observations

Time (CDT) Temp. Heat Index Dew Point Humidity Pressure Visibility Wind Dir Wind Speed Gust Speed Precip Events Conditions
12:53 AM 57.9 °F - 54.0 °F 87% 30.02 in 10.0 mi NNW 3.5 mph - N/A   Clear
1:53 AM 55.9 °F - 53.1 °F 90% 30.01 in 10.0 mi Calm Calm - N/A   Clear
2:53 AM 55.0 °F - 52.0 °F 89% 30.01 in 10.0 mi Calm Calm - N/A   Clear
3:53 AM 55.0 °F - 52.0 °F 89% 30.00 in 10.0 mi Calm Calm - N/A   Clear
4:53 AM 53.1 °F - 50.0 °F 89% 30.01 in 10.0 mi Calm Calm - N/A   Clear
5:53 AM 55.0 °F - 51.1 °F 86% 30.01 in 10.0 mi Calm Calm - N/A   Clear
6:53 AM 52.0 °F - 50.0 °F 93% 30.02 in 10.0 mi Calm Calm - N/A   Clear
7:53 AM 54.0 °F - 51.1 °F 90% 30.03 in 10.0 mi Calm Calm - N/A   Clear
8:53 AM 59.0 °F - 55.0 °F 87% 30.02 in 6.0 mi Calm Calm - N/A   Clear
9:53 AM 64.9 °F - 55.0 °F 70% 30.03 in - SSE 3.5 mph - N/A   Clear
10:53 AM 72.0 °F - 55.0 °F 55% 30.02 in 10.0 mi Calm Calm - N/A   Clear
11:53 AM 75.0 °F - 53.1 °F 46% 30.01 in 10.0 mi South 4.6 mph - N/A   Clear
12:53 PM 77.0 °F - 52.0 °F 42% 29.99 in 10.0 mi South 5.8 mph - N/A   Clear
1:53 PM 79.0 °F - 52.0 °F 39% 29.97 in 10.0 mi South 9.2 mph - N/A   Clear
2:53 PM 79.0 °F - 53.1 °F 40% 29.95 in 10.0 mi South 5.8 mph - N/A   Clear
3:53 PM 80.1 °F 79.9 °F 53.1 °F 39% 29.92 in 10.0 mi SW 10.4 mph - N/A   Clear
4:53 PM 80.1 °F - 52.0 °F 38% 29.91 in 10.0 mi South 6.9 mph - N/A   Clear
5:53 PM 80.1 °F - 52.0 °F 38% 29.89 in 10.0 mi South 8.1 mph - N/A   Clear
6:53 PM 75.0 °F - 55.9 °F 51% 29.89 in 10.0 mi South 5.8 mph - N/A   Clear
7:53 PM 69.1 °F - 55.9 °F 63% 29.89 in 10.0 mi South 5.8 mph - N/A   Clear
8:53 PM 66.0 °F - 55.0 °F 68% 29.90 in 10.0 mi South 5.8 mph - N/A   Clear
9:53 PM 64.0 °F - 55.0 °F 73% 29.91 in 10.0 mi South 6.9 mph - N/A   Clear
10:53 PM 63.0 °F - 55.0 °F 75% 29.91 in 10.0 mi SSE 6.9 mph - N/A   Clear
11:53 PM 61.0 °F - 54.0 °F 78% 29.92 in 10.0 mi SSE 6.9 mph - N/A   Clear